Location: Hartman Creek State Park
(44.3257°N, 89.2134°W)
Time: 15:49:36
(UTC-05:00)

Terra - Visible Passes

Search period start: 25 June 2017 00:00
Search period end: 05 July 2017 00:00
Orbit: 701 x 703 km, 98.2° (Epoch: 25 June)

Date Brightness Start Highest point End Pass type
(mag) Time Alt. Az. Time Alt. Az. Time Alt. Az.
25 Jun 2.4 22:19:38 19° SE 22:22:42 44° ENE 22:27:13 10° N visible
25 Jun 3.7 23:58:31 16° SW 00:00:39 21° W 00:04:17 10° NW visible
26 Jun 3.8 21:25:34 10° E 21:28:13 15° ENE 21:30:52 10° NNE visible
26 Jun 1.9 23:02:53 28° S 23:05:22 72° WSW 23:10:09 10° NNW visible
27 Jun 2.8 22:07:16 15° SE 22:10:33 34° ENE 22:14:51 10° N visible
27 Jun 3.3 23:46:09 20° SW 23:48:18 28° W 23:52:24 10° NW visible
28 Jun 1.8 22:50:32 27° SSE 22:53:09 87° ENE 22:57:56 10° NNW visible
29 Jun 4.3 00:30:32 10° W 00:31:32 11° W 00:32:33 10° WNW visible
29 Jun 3.1 21:54:55 12° ESE 21:58:25 27° ENE 22:02:24 10° N visible
29 Jun 2.9 23:33:48 24° SW 23:36:00 36° W 23:40:25 10° NNW visible
30 Jun 1.9 22:38:11 25° SSE 22:40:56 67° ENE 22:45:40 10° N visible
01 Jul 4.1 00:17:05 11° WSW 00:19:08 14° W 00:21:42 10° WNW visible
01 Jul 3.4 21:42:46 10° ESE 21:46:18 21° ENE 21:49:52 10° NNE visible
01 Jul 2.5 23:21:28 27° SSW 23:23:44 47° W 23:28:20 10° NNW visible
02 Jul 2.2 22:25:51 21° SE 22:28:45 51° ENE 22:33:22 10° N visible
03 Jul 3.8 00:04:44 15° WSW 00:06:47 19° W 00:10:08 10° NW visible
03 Jul 3.7 21:31:14 10° E 21:34:14 17° ENE 21:37:14 10° NNE visible
03 Jul 2.1 23:09:08 29° S 23:11:28 63° WSW 23:16:12 10° NNW visible
04 Jul 2.6 22:13:31 18° SE 22:16:36 39° ENE 22:21:01 10° N visible
04 Jul 3.5 23:52:24 18° SW 23:54:26 24° W 23:58:20 10° NW visible
